星链-1197 (STARLINK-1197 )

导读

STARLINK-1197是美国太空探索技术公司(SpaceX)星链(Starlink)星座中的卫星,于2020年2月17日在美国发射升空,属于星链计划低轨互联网星座组网的组成部分,旨在为全球范围提供高速宽带互联网服务,目前在轨运行,参与完成星座的通信服务覆盖与组网任务。

基本信息
目录编号:
45199
目录名称:
STARLINK-1197
国际标识:
2020-012X
轨道中心:
EARTH
卫星名称:
星链-1197
卫星全名:
星链-1197 (STARLINK-1197 )
卫星状态:
已陨落 最后检测时间 2024-09-07
发射日期:
2020-02-17 UTC
国别 :
美国 (US)
星等 :
--
轨道信息
数据来源 国际轨道数据
星历时间: 2024-09-07T20:20:42+0800
轨道信息已过期645天
半长轴: 6551.106km
偏心率: 0.0006081
轨道倾角: 53.023°
近地点辐角 343.882°
升交点赤经 247.295°
平近点角 102.281°
近地点: 168.987km
远地点: 176.955km
周期: 87.949分钟
每日圈数: 16.3731
详细信息
固有亮度:
5
最大亮度:
2.5
卫星平台:
Starlink V1.0
覆盖范围:
全球
运营商:
太空探索技术公司
运营商所在国:
美国
制造商(研发单位):
太空探索技术公司
制造商所在国:
美国
使用方式:
暂无
卫星简介
星链(Starlink)计划是由太空探索技术公司(SpaceX)提出的一个巨型低轨卫星互联网星座项目,计划在2019年至2024年间在太空搭建由约1.2万颗卫星组成的“星链”网络,其中1584颗将部署在地球上空550千米处的近地轨道,并从2020年开始工作。该卫星仍在工作。